CDT,Max TemperatureF,Mean TemperatureF,Min TemperatureF,Max Dew PointF,MeanDew PointF,Min DewpointF,Max Humidity, Mean Humidity, Min Humidity, Max Sea Level PressureIn, Mean Sea Level PressureIn, Min Sea Level PressureIn, Max VisibilityMiles, Mean VisibilityMiles, Min VisibilityMiles, Max Wind SpeedMPH, Mean Wind SpeedMPH, Max Gust SpeedMPH,PrecipitationIn, CloudCover, Events, WindDirDegrees
2013-10-1,78,61,44,52,44,34,87,52,20,30.03,29.86,29.67,10,10,10,17,11,30,0.00,0,,259
2013-10-2,78,60,42,59,43,36,94,57,23,30.08,29.98,29.84,10,10,1,36,6,41,0.55,2,Rain-Thunderstorm,115
2013-10-3,62,60,59,61,58,55,100,94,88,29.93,29.86,29.81,10,8,2,13,7,17,0.40,7,Rain-Thunderstorm,55
2013-10-4,60,60,59,59,57,55,100,93,88,29.96,29.90,29.80,10,4,1,18,10,24,0.37,8,Rain-Thunderstorm,50
2013-10-5,62,52,42,61,47,37,100,78,51,29.88,29.81,29.77,10,10,5,18,10,24,0.01,5,Rain,181
2013-10-6,53,48,42,50,44,41,94,87,67,29.89,29.77,29.72,10,10,2,17,3,22,0.03,7,Rain,291
2013-10-7,66,52,37,48,41,37,100,72,35,30.01,29.96,29.89,10,10,10,7,4,,0.00,0,,229
2013-10-8,78,64,50,48,45,43,77,53,29,30.00,29.95,29.88,10,10,10,23,12,32,0.00,0,,164
2013-10-9,78,66,55,54,49,45,82,58,34,30.08,30.04,29.98,10,10,10,16,11,24,0.00,0,,161
2013-10-10,78,64,50,55,49,45,82,62,36,30.08,29.99,29.90,10,10,10,16,9,25,0.00,0,,142
2013-10-11,73,64,55,61,55,50,88,73,50,29.90,29.79,29.67,10,10,4,28,13,43,0.11,2,Rain,145
2013-10-12,60,50,39,50,40,32,93,68,34,30.23,29.99,29.79,10,10,7,33,12,39,0.00,1,,236
2013-10-13,60,46,33,43,34,30,93,69,34,30.45,30.38,30.24,10,10,2,10,3,,0.00,0,,285
2013-10-14,59,50,41,50,38,34,88,68,45,30.41,30.20,29.91,10,10,4,20,9,26,0.27,4,Rain,106
2013-10-15,53,48,44,52,48,43,100,93,87,29.90,29.75,29.69,10,6,1,28,16,34,0.13,8,Rain,195
2013-10-16,53,45,37,45,41,36,100,88,62,29.99,29.93,29.84,10,8,2,16,10,20,0.00,6,Rain,298
2013-10-17,59,47,35,45,39,34,93,81,45,29.93,29.86,29.79,10,10,3,17,6,22,0.00,4,Rain,239
2013-10-18,53,45,37,37,35,32,87,72,44,30.01,29.95,29.89,10,10,5,17,10,24,0.00,5,Rain,288
2013-10-19,46,39,30,39,33,28,93,83,57,29.88,29.80,29.73,10,10,4,21,7,30,0.01,3,,246
2013-10-20,53,42,30,45,34,27,93,82,62,29.91,29.75,29.63,10,10,7,25,7,33,0.01,7,Rain,241
2013-10-21,41,32,23,34,26,21,93,72,49,30.00,29.97,29.92,10,10,7,20,12,26,0.00,5,,286
2013-10-22,41,31,21,32,28,19,93,82,61,30.05,30.01,29.97,10,10,10,10,3,,0.00,5,,317
2013-10-23,37,34,32,32,29,23,93,78,56,30.12,30.06,30.03,10,10,10,17,8,22,0.00,8,,289
2013-10-24,44,36,26,32,28,25,93,74,57,30.35,30.25,30.11,10,10,10,16,8,22,0.00,6,,302
2013-10-25,59,41,23,39,31,23,100,70,42,30.35,30.13,29.86,10,10,7,26,8,36,0.00,1,,205
2013-10-26,50,41,30,37,32,28,93,68,50,30.12,30.04,29.85,10,10,10,20,13,26,0.00,0,,294
2013-10-27,62,45,28,36,31,25,93,66,36,30.09,29.94,29.82,10,10,10,18,7,23,0.00,0,,204
2013-10-28,44,38,33,32,30,27,87,71,57,30.40,30.32,30.10,10,10,10,17,13,24,0.00,2,,44
2013-10-29,53,44,35,39,34,27,87,73,54,30.36,30.21,30.07,10,10,10,16,9,21,0.00,7,,65
2013-10-30,53,48,42,52,47,41,100,93,87,30.07,29.88,29.67,4,2,2,12,6,,0.02,8,,83
2013-10-31,53,47,41,52,39,36,100,89,81,29.66,29.53,29.44,10,7,2,15,9,18,0.01,8,Rain,278